DAH1084 DAOO-LFPG

Flight info

Callsign DAH1084
Flight time 2h 10m
Altitude 36000
Route SID74 HAMRA DCT IZA DCT OKITI DCT GODOX DCT EPAMA DCT MARTA DCT EBROX DCT LATRO DCT OLOXO DCT OKABI DCT TOU DCT POI/N0441F300 DCT PEPAX UT182 KEPER
Aircraft B738/M-SDE2E3FGHIRWXY/LB1

Departure

Time 2026-04-25 15:45
Airport Oran Es-Sénia (Ahmed Ben Bella) International Airport (DAOO)

Arrival

Time 2026-04-25 17:55
Airport Charles de Gaulle International Airport (LFPG)
Time Latitude Longitude Altitude Speed Heading
2026-04-25 15:44 35.68483 -0.62100 4169 ft 265 kts 43°
2026-04-25 15:45 35.69864 -0.60546 4837 ft 272 kts 43°
2026-04-25 15:45 35.71275 -0.58956 5510 ft 279 kts 43°
2026-04-25 15:45 35.72727 -0.57323 6226 ft 282 kts 43°
2026-04-25 15:45 35.73198 -0.56793 6479 ft 284 kts 43°
2026-04-25 15:46 35.75676 -0.54009 7648 ft 290 kts 43°
2026-04-25 15:46 35.77150 -0.52355 8411 ft 292 kts 43°
2026-04-25 15:46 35.78685 -0.50632 9083 ft 297 kts 43°
2026-04-25 15:46 35.80225 -0.48903 9764 ft 302 kts 43°
2026-04-25 15:47 35.81770 -0.47167 10355 ft 309 kts 43°
2026-04-25 15:47 35.82869 -0.45932 10460 ft 325 kts 43°
2026-04-25 15:47 35.84596 -0.43991 10616 ft 346 kts 43°
2026-04-25 15:47 35.86419 -0.41940 10897 ft 362 kts 43°
2026-04-25 15:48 35.87025 -0.41259 11067 ft 364 kts 43°
2026-04-25 15:48 35.87661 -0.40544 11244 ft 366 kts 43°
2026-04-25 15:50 36.03555 -0.22614 16647 ft 389 kts 43°
2026-04-25 15:50 36.05557 -0.20347 17281 ft 392 kts 43°
2026-04-25 15:50 36.07579 -0.18057 17918 ft 395 kts 43°
2026-04-25 15:50 36.09612 -0.15752 18509 ft 399 kts 43°
2026-04-25 15:51 36.11662 -0.13426 19061 ft 401 kts 43°
2026-04-25 15:51 36.13023 -0.11882 19442 ft 402 kts 43°
2026-04-25 15:51 36.15787 -0.08742 20193 ft 405 kts 43°
2026-04-25 15:51 36.17867 -0.06377 20730 ft 407 kts 44°
2026-04-25 15:52 36.19957 -0.03999 21257 ft 409 kts 44°
2026-04-25 15:52 36.22056 -0.01608 21771 ft 412 kts 44°
2026-04-25 15:52 36.24146 0.00773 22213 ft 416 kts 44°
2026-04-25 15:52 36.26285 0.03211 22611 ft 421 kts 44°
2026-04-25 15:53 36.28676 0.05329 23051 ft 427 kts 25°
2026-04-25 15:53 36.31528 0.06354 23579 ft 430 kts
2026-04-25 15:53 36.34528 0.06303 23993 ft 434 kts 354°
2026-04-25 15:53 36.37529 0.05814 24379 ft 437 kts 353°
2026-04-25 15:54 36.40550 0.05274 24712 ft 441 kts 353°
2026-04-25 15:54 36.46792 0.04169 25437 ft 447 kts 353°
2026-04-25 15:54 36.49880 0.03648 25806 ft 449 kts 354°
2026-04-25 15:55 36.52982 0.03138 26151 ft 451 kts 354°
2026-04-25 15:55 36.56063 0.02638 26495 ft 453 kts 354°
2026-04-25 15:55 36.59238 0.02126 26841 ft 456 kts 354°
2026-04-25 15:55 36.62352 0.01623 27170 ft 458 kts 354°
2026-04-25 15:56 36.65521 0.01111 27501 ft 460 kts 354°
2026-04-25 15:56 36.68709 0.00594 27822 ft 463 kts 354°
2026-04-25 15:56 36.71908 0.00075 28129 ft 465 kts 355°
2026-04-25 15:56 36.75136 -0.00145 28383 ft 465 kts
2026-04-25 15:57 36.78304 0.00526 28670 ft 463 kts 18°
2026-04-25 15:57 36.81295 0.01958 29038 ft 459 kts 30°
2026-04-25 15:57 36.84113 0.03841 29331 ft 460 kts 31°
2026-04-25 15:57 36.86928 0.05770 29560 ft 463 kts 31°
2026-04-25 15:58 36.89758 0.07716 29809 ft 465 kts 31°
2026-04-25 15:58 36.92595 0.09656 30166 ft 465 kts 31°
2026-04-25 15:58 36.95430 0.11582 30554 ft 462 kts 31°
2026-04-25 15:58 36.98251 0.13487 30925 ft 461 kts 31°
2026-04-25 15:59 37.01073 0.15385 31200 ft 461 kts 30°
2026-04-25 15:59 37.03906 0.17289 31441 ft 462 kts 30°
2026-04-25 15:59 37.06737 0.19192 31742 ft 462 kts 31°
2026-04-25 15:59 37.09563 0.21093 32091 ft 460 kts 31°
2026-04-25 16:00 37.10477 0.21708 32203 ft 460 kts 30°
2026-04-25 16:00 37.13292 0.23602 32518 ft 459 kts 31°
2026-04-25 16:00 37.18006 0.26777 32980 ft 459 kts 31°
2026-04-25 16:00 37.20814 0.28671 33291 ft 458 kts 31°
2026-04-25 16:01 37.23616 0.30563 33603 ft 457 kts 31°
2026-04-25 16:01 37.26403 0.32446 34032 ft 453 kts 31°
2026-04-25 16:01 37.29133 0.34292 34320 ft 452 kts 31°
2026-04-25 16:01 37.31951 0.36069 34450 ft 456 kts 24°
2026-04-25 16:02 37.35040 0.37260 34585 ft 462 kts 14°
2026-04-25 16:02 37.38154 0.38012 34815 ft 461 kts 12°
2026-04-25 16:02 37.41310 0.38735 34999 ft 463 kts 12°
2026-04-25 16:02 37.44492 0.39463 35084 ft 466 kts 12°
2026-04-25 16:03 37.47677 0.40203 35304 ft 465 kts 12°
2026-04-25 16:03 37.50835 0.40951 35728 ft 459 kts 12°
2026-04-25 16:03 37.53965 0.41705 36012 ft 457 kts 13°
2026-04-25 16:03 37.57092 0.42467 36060 ft 460 kts 13°
2026-04-25 16:04 37.63402 0.44022 36071 ft 464 kts 13°
2026-04-25 16:04 37.69754 0.45593 36080 ft 465 kts 13°
2026-04-25 16:05 37.76092 0.47158 36074 ft 462 kts 13°
2026-04-25 16:06 37.85426 0.49468 36069 ft 454 kts 12°
2026-04-25 16:06 37.91609 0.51005 36082 ft 452 kts 13°
2026-04-25 16:07 37.97787 0.52538 36088 ft 452 kts 12°
2026-04-25 16:07 38.03964 0.54074 36084 ft 453 kts 13°
2026-04-25 16:08 38.10153 0.55619 36093 ft 454 kts 12°
2026-04-25 16:08 38.16354 0.57170 36091 ft 455 kts 13°
2026-04-25 16:09 38.22550 0.58718 36092 ft 455 kts 12°
2026-04-25 16:09 38.28778 0.60279 36092 ft 456 kts 12°
2026-04-25 16:10 38.35020 0.61846 36091 ft 457 kts 12°
2026-04-25 16:10 38.41262 0.63417 36106 ft 458 kts 12°
2026-04-25 16:11 38.47524 0.64994 36087 ft 458 kts 12°
2026-04-25 16:11 38.53731 0.66561 36096 ft 457 kts 12°
2026-04-25 16:12 38.59967 0.68137 36094 ft 457 kts 12°
2026-04-25 16:12 38.66194 0.69715 36096 ft 455 kts 12°
2026-04-25 16:13 38.70346 0.70768 36098 ft 455 kts 12°
2026-04-25 16:13 38.71395 0.71035 36096 ft 455 kts 12°
2026-04-25 16:14 38.73448 0.71556 36095 ft 454 kts 12°
2026-04-25 16:14 38.75505 0.72079 36099 ft 454 kts 12°
2026-04-25 16:16 38.97511 0.77691 36101 ft 453 kts 12°
2026-04-25 16:16 39.03722 0.79281 36111 ft 458 kts 12°
2026-04-25 16:17 39.09993 0.80890 36107 ft 462 kts 12°
2026-04-25 16:17 39.16294 0.82509 36098 ft 460 kts 12°
2026-04-25 16:18 39.22538 0.84116 36102 ft 456 kts 12°
2026-04-25 16:18 39.28747 0.85718 36105 ft 454 kts 12°
2026-04-25 16:19 39.34929 0.87315 36105 ft 453 kts 12°
2026-04-25 16:19 39.41102 0.88913 36109 ft 452 kts 12°
2026-04-25 16:20 39.50362 0.91315 36112 ft 453 kts 12°
2026-04-25 16:21 39.59664 0.93735 36110 ft 456 kts 12°
2026-04-25 16:21 39.65889 0.95358 36114 ft 457 kts 12°
2026-04-25 16:22 39.72135 0.96990 36111 ft 458 kts 12°
2026-04-25 16:22 39.78336 0.98613 36110 ft 459 kts 12°
2026-04-25 16:23 39.84604 1.00256 36111 ft 459 kts 12°
2026-04-25 16:23 39.90867 1.01901 36106 ft 459 kts 12°
2026-04-25 16:24 39.97116 1.03545 36106 ft 458 kts 12°
2026-04-25 16:24 40.03353 1.05190 36108 ft 456 kts 12°
2026-04-25 16:25 40.09564 1.06830 36109 ft 455 kts 12°
2026-04-25 16:25 40.15765 1.08471 36113 ft 454 kts 12°
2026-04-25 16:26 40.21942 1.10109 36114 ft 453 kts 12°
2026-04-25 16:26 40.28109 1.11747 36114 ft 452 kts 11°
2026-04-25 16:27 40.34264 1.13385 36112 ft 451 kts 11°
2026-04-25 16:27 40.40413 1.15025 36114 ft 451 kts 11°
2026-04-25 16:28 40.46560 1.16667 36114 ft 451 kts 11°
2026-04-25 16:28 40.52707 1.18312 36117 ft 451 kts 11°
2026-04-25 16:29 40.58855 1.19960 36115 ft 451 kts 11°
2026-04-25 16:29 40.65009 1.21614 36115 ft 451 kts 11°
2026-04-25 16:30 40.71165 1.23280 36113 ft 452 kts 12°
2026-04-25 16:30 40.77260 1.25334 36119 ft 452 kts 15°
2026-04-25 16:31 40.83305 1.27572 36115 ft 453 kts 15°
2026-04-25 16:31 40.89374 1.29802 36110 ft 453 kts 15°
2026-04-25 16:32 40.95451 1.32000 36112 ft 453 kts 15°
2026-04-25 16:32 41.01531 1.34190 36106 ft 452 kts 14°
2026-04-25 16:33 41.07599 1.36377 36103 ft 452 kts 14°
2026-04-25 16:33 41.13659 1.38568 36104 ft 451 kts 14°
2026-04-25 16:34 41.19667 1.40744 36106 ft 450 kts 14°
2026-04-25 16:34 41.25746 1.42950 36100 ft 450 kts 15°
2026-04-25 16:35 41.31775 1.45143 36104 ft 449 kts 15°
2026-04-25 16:35 41.37758 1.47323 36107 ft 448 kts 14°
2026-04-25 16:36 41.43769 1.49516 36099 ft 448 kts 14°
2026-04-25 16:36 41.49779 1.51714 36098 ft 447 kts 15°
2026-04-25 16:37 41.55781 1.53915 36100 ft 447 kts 15°
2026-04-25 16:37 41.61762 1.56112 36092 ft 447 kts 14°
2026-04-25 16:38 41.67755 1.58316 36096 ft 447 kts 14°
2026-04-25 16:38 41.73748 1.60523 36095 ft 447 kts 14°
2026-04-25 16:39 41.79881 1.61492 36092 ft 444 kts 355°
2026-04-25 16:39 41.86019 1.60555 36087 ft 444 kts 352°
2026-04-25 16:40 41.92149 1.59496 36086 ft 445 kts 352°
2026-04-25 16:40 41.98295 1.58485 36100 ft 445 kts 352°
2026-04-25 16:41 42.04449 1.57508 36098 ft 446 kts 352°
2026-04-25 16:41 42.13692 1.56049 36110 ft 446 kts 352°
2026-04-25 16:42 42.19850 1.55073 36147 ft 446 kts 352°
2026-04-25 16:42 42.26010 1.54093 36164 ft 446 kts 352°
2026-04-25 16:43 42.32148 1.53115 36161 ft 446 kts 352°
2026-04-25 16:43 42.38326 1.52128 36151 ft 447 kts 352°
2026-04-25 16:44 42.44472 1.51145 36155 ft 448 kts 352°
2026-04-25 16:44 42.50674 1.50153 36165 ft 450 kts 352°
2026-04-25 16:45 42.56938 1.49149 36167 ft 451 kts 352°
2026-04-25 16:45 42.63136 1.48154 36172 ft 452 kts 351°
2026-04-25 16:46 42.69421 1.47143 36184 ft 453 kts 352°
2026-04-25 16:46 42.73573 1.46475 36183 ft 454 kts 352°
2026-04-25 16:47 42.81974 1.45119 36163 ft 455 kts 351°
2026-04-25 16:47 42.86875 1.44326 35975 ft 455 kts 352°
2026-04-25 16:48 42.90006 1.43818 36166 ft 452 kts 351°
2026-04-25 16:48 42.93124 1.43313 36162 ft 450 kts 351°
2026-04-25 16:48 42.99314 1.42310 36168 ft 447 kts 351°
2026-04-25 16:49 43.05488 1.41306 36154 ft 446 kts 351°
2026-04-25 16:49 43.11647 1.40301 36171 ft 446 kts 351°
2026-04-25 16:50 43.17788 1.39297 36156 ft 448 kts 351°
2026-04-25 16:50 43.23960 1.38286 36162 ft 449 kts 351°
2026-04-25 16:51 43.30184 1.37265 36161 ft 452 kts 351°
2026-04-25 16:51 43.34364 1.36579 36158 ft 453 kts 351°
2026-04-25 16:52 43.39224 1.35779 36156 ft 454 kts 351°
2026-04-25 16:52 43.41332 1.35431 35979 ft 455 kts 351°
2026-04-25 16:52 43.44462 1.34911 36167 ft 452 kts 350°
2026-04-25 16:53 43.53814 1.33371 36154 ft 451 kts 350°
2026-04-25 16:54 43.60050 1.32338 36159 ft 451 kts 350°
2026-04-25 16:54 43.66291 1.31301 36165 ft 452 kts 350°
2026-04-25 16:55 43.72457 1.29792 36165 ft 449 kts 343°
2026-04-25 16:55 43.78476 1.27717 36154 ft 449 kts 342°
2026-04-25 16:56 43.84525 1.25594 36159 ft 449 kts 342°
2026-04-25 16:56 43.90576 1.23530 36147 ft 449 kts 343°
2026-04-25 16:57 43.96628 1.21499 36149 ft 448 kts 343°
2026-04-25 16:57 44.02697 1.19469 36155 ft 448 kts 343°
2026-04-25 16:58 44.08756 1.17438 36147 ft 448 kts 343°
2026-04-25 16:58 44.14810 1.15403 36144 ft 448 kts 343°
2026-04-25 16:59 44.20858 1.13364 36142 ft 448 kts 343°
2026-04-25 16:59 44.26918 1.11317 36142 ft 448 kts 342°
2026-04-25 17:00 44.32983 1.09264 36139 ft 449 kts 342°
2026-04-25 17:00 44.39050 1.07206 36142 ft 449 kts 342°
2026-04-25 17:01 44.44096 1.05491 36156 ft 449 kts 343°
2026-04-25 17:01 44.50179 1.03420 36140 ft 450 kts 343°
2026-04-25 17:02 44.56260 1.01345 36144 ft 450 kts 343°
2026-04-25 17:02 44.62345 0.99264 36145 ft 450 kts 343°
2026-04-25 17:03 44.68433 0.97177 36140 ft 450 kts 343°
2026-04-25 17:03 44.74504 0.95092 36135 ft 450 kts 343°
2026-04-25 17:04 44.80579 0.93002 36143 ft 449 kts 343°
2026-04-25 17:04 44.86640 0.90911 36149 ft 448 kts 343°
2026-04-25 17:05 44.92700 0.88815 36144 ft 448 kts 343°
2026-04-25 17:05 45.01777 0.85669 36135 ft 448 kts 342°
2026-04-25 17:06 45.07826 0.83566 36137 ft 448 kts 342°
2026-04-25 17:06 45.13877 0.81458 36129 ft 448 kts 342°
2026-04-25 17:07 45.19932 0.79344 36142 ft 449 kts 342°
2026-04-25 17:07 45.26006 0.77218 36136 ft 450 kts 342°
2026-04-25 17:08 45.32095 0.75082 36131 ft 452 kts 342°
2026-04-25 17:08 45.38160 0.72951 36133 ft 453 kts 342°
2026-04-25 17:09 45.44265 0.70801 36134 ft 454 kts 342°
2026-04-25 17:09 45.50405 0.68633 36136 ft 455 kts 342°
2026-04-25 17:10 45.56549 0.66459 36128 ft 455 kts 342°
2026-04-25 17:10 45.62698 0.64280 36131 ft 455 kts 342°
2026-04-25 17:11 45.68847 0.62095 36124 ft 455 kts 342°
2026-04-25 17:11 45.74977 0.59911 36134 ft 454 kts 342°
2026-04-25 17:12 45.81102 0.57725 36138 ft 453 kts 342°
2026-04-25 17:12 45.87215 0.55537 36131 ft 452 kts 342°
2026-04-25 17:13 45.92288 0.53718 36130 ft 452 kts 342°
2026-04-25 17:13 45.99415 0.51157 36132 ft 451 kts 342°
2026-04-25 17:14 46.05499 0.48964 36117 ft 451 kts 342°
2026-04-25 17:14 46.11592 0.46764 36117 ft 451 kts 342°
2026-04-25 17:15 46.17678 0.44561 36126 ft 451 kts 342°
2026-04-25 17:15 46.23772 0.42350 36104 ft 452 kts 342°
2026-04-25 17:16 46.29873 0.40132 36109 ft 453 kts 342°
2026-04-25 17:16 46.35986 0.37904 36107 ft 453 kts 343°
2026-04-25 17:17 46.42050 0.35689 36107 ft 453 kts 343°
2026-04-25 17:17 46.48207 0.33435 36101 ft 453 kts 343°
2026-04-25 17:18 46.54269 0.31215 36103 ft 453 kts 344°
2026-04-25 17:18 46.60570 0.30555 36108 ft 458 kts
2026-04-25 17:19 46.66851 0.32304 36106 ft 460 kts 11°
2026-04-25 17:19 46.73088 0.34358 36103 ft 459 kts 11°
2026-04-25 17:20 46.79332 0.36345 36102 ft 459 kts 10°
2026-04-25 17:20 46.85577 0.38285 36100 ft 459 kts 10°
2026-04-25 17:21 46.91814 0.40217 36100 ft 458 kts 10°
2026-04-25 17:21 46.98052 0.42159 36102 ft 459 kts 10°
2026-04-25 17:22 47.03244 0.43780 36107 ft 459 kts 10°
2026-04-25 17:22 47.10638 0.44814 35460 ft 459 kts 351°
2026-04-25 17:23 47.13777 0.44123 34910 ft 456 kts 347°
2026-04-25 17:23 47.16904 0.43305 34277 ft 457 kts 347°
2026-04-25 17:23 47.20035 0.42472 33532 ft 459 kts 347°
2026-04-25 17:23 47.23172 0.41657 33046 ft 455 kts 348°
2026-04-25 17:24 47.26282 0.40871 32580 ft 451 kts 348°
2026-04-25 17:24 47.29357 0.40110 32115 ft 447 kts 348°
2026-04-25 17:24 47.32411 0.39361 31658 ft 443 kts 348°
2026-04-25 17:24 47.35434 0.38621 31214 ft 439 kts 348°
2026-04-25 17:25 47.38435 0.37885 30768 ft 435 kts 348°
2026-04-25 17:25 47.41405 0.37155 30339 ft 432 kts 348°
2026-04-25 17:25 47.44356 0.36428 29852 ft 428 kts 348°
2026-04-25 17:25 47.47282 0.35707 29370 ft 424 kts 348°
2026-04-25 17:26 47.50180 0.34990 28892 ft 420 kts 348°
2026-04-25 17:26 47.53046 0.34280 28457 ft 415 kts 348°
2026-04-25 17:26 47.55879 0.33576 27999 ft 411 kts 348°
2026-04-25 17:26 47.58690 0.32877 27561 ft 407 kts 348°
2026-04-25 17:27 47.61473 0.32184 27186 ft 403 kts 348°
2026-04-25 17:27 47.64194 0.31507 27121 ft 390 kts 348°
2026-04-25 17:27 47.66885 0.30835 26356 ft 396 kts 348°
2026-04-25 17:27 47.67765 0.30615 26272 ft 394 kts 348°
2026-04-25 17:28 47.72302 0.29480 25457 ft 393 kts 348°
2026-04-25 17:28 47.74988 0.28808 25016 ft 391 kts 348°
2026-04-25 17:28 47.77631 0.28153 24597 ft 389 kts 350°
2026-04-25 17:28 47.80369 0.28222 24138 ft 393 kts 11°
2026-04-25 17:29 47.82903 0.29665 23860 ft 391 kts 30°
2026-04-25 17:29 47.85143 0.31936 23533 ft 388 kts 34°
2026-04-25 17:29 47.87281 0.34260 23194 ft 384 kts 34°
2026-04-25 17:29 47.89448 0.36600 22880 ft 385 kts 34°
2026-04-25 17:30 47.91639 0.38920 22577 ft 387 kts 33°
2026-04-25 17:30 47.93870 0.41260 22276 ft 387 kts 33°
2026-04-25 17:30 47.96042 0.43533 21981 ft 387 kts 33°
2026-04-25 17:30 47.98249 0.45845 21681 ft 388 kts 34°
2026-04-25 17:31 48.00449 0.48154 21379 ft 385 kts 34°
2026-04-25 17:31 48.02631 0.50449 21084 ft 383 kts 34°
2026-04-25 17:31 48.04805 0.52737 20792 ft 381 kts 34°
2026-04-25 17:31 48.06964 0.55011 20508 ft 379 kts 34°
2026-04-25 17:32 48.09114 0.57279 20211 ft 377 kts 34°
2026-04-25 17:32 48.11255 0.59540 19922 ft 376 kts 34°
2026-04-25 17:32 48.13388 0.61794 19633 ft 375 kts 34°
2026-04-25 17:32 48.15513 0.64044 19350 ft 374 kts 34°
2026-04-25 17:33 48.17633 0.66289 19063 ft 373 kts 34°
2026-04-25 17:33 48.19748 0.68531 18784 ft 372 kts 34°
2026-04-25 17:33 48.21860 0.70773 18506 ft 371 kts 34°
2026-04-25 17:33 48.23966 0.73011 18182 ft 371 kts 34°
2026-04-25 17:34 48.26062 0.75242 17868 ft 369 kts 34°
2026-04-25 17:34 48.28153 0.77467 17568 ft 367 kts 34°
2026-04-25 17:34 48.30230 0.79680 17271 ft 365 kts 34°
2026-04-25 17:34 48.32291 0.81879 16996 ft 362 kts 34°
2026-04-25 17:35 48.34291 0.84164 16704 ft 361 kts 44°
2026-04-25 17:35 48.35732 0.87224 16450 ft 358 kts 62°
2026-04-25 17:35 48.36862 0.90547 16175 ft 356 kts 63°
2026-04-25 17:35 48.37973 0.93863 15902 ft 354 kts 63°
2026-04-25 17:36 48.39093 0.97158 15623 ft 353 kts 62°
2026-04-25 17:36 48.40334 1.00329 15351 ft 351 kts 54°
2026-04-25 17:36 48.41781 1.03275 15087 ft 350 kts 52°
2026-04-25 17:36 48.43267 1.06179 14760 ft 350 kts 52°
2026-04-25 17:37 48.44751 1.09063 14553 ft 346 kts 51°
2026-04-25 17:37 48.46220 1.11917 14321 ft 344 kts 51°
2026-04-25 17:37 48.47685 1.14763 14085 ft 343 kts 51°
2026-04-25 17:37 48.49142 1.17594 13831 ft 341 kts 51°
2026-04-25 17:38 48.50590 1.20411 13565 ft 339 kts 51°
2026-04-25 17:38 48.51077 1.21362 13463 ft 339 kts 51°
2026-04-25 17:38 48.53459 1.26013 13068 ft 336 kts 51°
2026-04-25 17:38 48.54880 1.28796 12826 ft 334 kts 51°
2026-04-25 17:39 48.56292 1.31570 12584 ft 333 kts 51°
2026-04-25 17:39 48.57694 1.34338 12351 ft 331 kts 51°
2026-04-25 17:39 48.59089 1.37101 12113 ft 330 kts 51°
2026-04-25 17:39 48.60475 1.39856 11882 ft 329 kts 51°
2026-04-25 17:40 48.61853 1.42600 11643 ft 328 kts 51°
2026-04-25 17:40 48.63227 1.45346 11407 ft 327 kts 51°
2026-04-25 17:40 48.64594 1.48083 11179 ft 326 kts 51°
2026-04-25 17:40 48.65946 1.50797 10949 ft 325 kts 51°
2026-04-25 17:41 48.67301 1.53524 10718 ft 323 kts 52°
2026-04-25 17:41 48.68626 1.56191 10489 ft 319 kts 51°
2026-04-25 17:41 48.69960 1.58886 10258 ft 313 kts 51°
2026-04-25 17:41 48.71236 1.61470 10102 ft 306 kts 52°
2026-04-25 17:42 48.72474 1.63985 9992 ft 292 kts 51°
2026-04-25 17:42 48.73673 1.66428 9639 ft 286 kts 51°
2026-04-25 17:42 48.74855 1.68831 9393 ft 284 kts 52°
2026-04-25 17:42 48.76037 1.71230 9195 ft 284 kts 51°
2026-04-25 17:43 48.77230 1.73647 9155 ft 288 kts 52°
2026-04-25 17:43 48.78425 1.76066 9119 ft 285 kts 52°
2026-04-25 17:43 48.79600 1.78464 8924 ft 281 kts 51°
2026-04-25 17:43 48.80765 1.80841 8521 ft 281 kts 52°
2026-04-25 17:44 48.81924 1.83197 8286 ft 272 kts 52°
2026-04-25 17:44 48.83023 1.85444 8179 ft 258 kts 52°
2026-04-25 17:44 48.84245 1.87315 8004 ft 245 kts 28°
2026-04-25 17:44 48.85835 1.88065 7720 ft 239 kts
2026-04-25 17:45 48.87500 1.88234 7424 ft 239 kts
2026-04-25 17:45 48.88060 1.88270 7369 ft 238 kts
2026-04-25 17:45 48.90814 1.88419 7159 ft 235 kts
2026-04-25 17:45 48.92393 1.88497 7170 ft 221 kts
2026-04-25 17:46 48.93898 1.88791 7135 ft 217 kts 22°
2026-04-25 17:46 48.95055 1.90190 7157 ft 216 kts 57°
2026-04-25 17:46 48.95549 1.92337 7066 ft 217 kts 79°
2026-04-25 17:46 48.95713 1.94620 6793 ft 217 kts 83°
2026-04-25 17:47 48.95848 1.96899 6465 ft 217 kts 83°
2026-04-25 17:47 48.95984 1.99181 6238 ft 217 kts 84°
2026-04-25 17:47 48.96125 2.01473 6012 ft 218 kts 84°
2026-04-25 17:47 48.96271 2.03774 5813 ft 218 kts 84°
2026-04-25 17:48 48.96516 2.07555 5559 ft 215 kts 84°
2026-04-25 17:48 48.96663 2.09811 5396 ft 212 kts 84°
2026-04-25 17:48 48.96805 2.11995 5234 ft 206 kts 84°
2026-04-25 17:49 48.96998 2.14142 5082 ft 203 kts 81°
2026-04-25 17:49 48.97183 2.16237 5038 ft 197 kts 83°
2026-04-25 17:49 48.97320 2.18301 5013 ft 195 kts 84°
2026-04-25 17:49 48.97434 2.20353 4957 ft 198 kts 84°
2026-04-25 17:50 48.97543 2.22466 4697 ft 200 kts 84°
2026-04-25 17:50 48.97648 2.24565 4435 ft 197 kts 84°
2026-04-25 17:50 48.97743 2.26469 4194 ft 194 kts 84°
2026-04-25 17:50 48.97844 2.28504 3936 ft 191 kts 83°
2026-04-25 17:51 48.97944 2.30494 3693 ft 186 kts 83°
2026-04-25 17:51 48.98043 2.32446 3438 ft 184 kts 82°
2026-04-25 17:51 48.98140 2.34358 3211 ft 179 kts 82°
2026-04-25 17:51 48.98235 2.36215 2956 ft 171 kts 83°
2026-04-25 17:52 48.98323 2.37962 2743 ft 161 kts 83°
2026-04-25 17:52 48.98379 2.39070 2608 ft 156 kts 81°
2026-04-25 17:52 48.98493 2.41261 2339 ft 159 kts 82°
2026-04-25 17:52 48.98581 2.42962 2126 ft 163 kts 83°
2026-04-25 17:53 48.98670 2.44683 1896 ft 161 kts 83°
2026-04-25 17:53 48.98754 2.46319 1700 ft 150 kts 83°
2026-04-25 17:53 48.98836 2.47895 1488 ft 147 kts 82°
2026-04-25 17:53 48.98918 2.49452 1310 ft 147 kts 82°
2026-04-25 17:54 48.98987 2.51016 1089 ft 148 kts 83°
2026-04-25 17:54 48.99079 2.52553 914 ft 144 kts 80°
2026-04-25 17:54 48.99156 2.54100 695 ft 148 kts 81°
2026-04-25 17:54 48.99241 2.55631 516 ft 142 kts 78°
2026-04-25 17:55 48.99321 2.57098 353 ft 134 kts 85°
2026-04-25 17:55 48.99384 2.58254 359 ft 79 kts 86°
2026-04-25 17:55 48.99413 2.58832 359 ft 40 kts 85°
2026-04-25 17:55 48.99434 2.59117 350 ft 24 kts 76°
2026-04-25 17:56 48.99484 2.59313 357 ft 17 kts 64°
2026-04-25 17:56 48.99525 2.59445 354 ft 11 kts 66°
2026-04-25 17:56 48.99551 2.59533 354 ft 6 kts 65°
2026-04-25 17:56 48.99566 2.59583 355 ft 5 kts 64°
2026-04-25 17:57 48.99586 2.59644 358 ft 8 kts 62°
2026-04-25 17:57 48.99633 2.59690 356 ft 9 kts 10°
2026-04-25 17:57 48.99683 2.59689 355 ft 5 kts 355°
2026-04-25 17:57 48.99693 2.59687 353 ft 1 kts 355°
2026-04-25 17:58 48.99694 2.59687 353 ft 0 kts 355°
2026-04-25 17:58 48.99701 2.59686 353 ft 3 kts 355°
2026-04-25 17:59 48.99740 2.59681 353 ft 9 kts 355°
2026-04-25 17:59 48.99819 2.59672 355 ft 14 kts 355°
2026-04-25 17:59 48.99900 2.59662 353 ft 7 kts 356°
2026-04-25 17:59 48.99923 2.59660 361 ft 1 kts 356°
2026-04-25 18:00 48.99930 2.59659 360 ft 1 kts 356°
2026-04-25 18:00 48.99936 2.59658 358 ft 1 kts 357°
2026-04-25 18:00 48.99950 2.59657 353 ft 4 kts 355°
2026-04-25 18:00 48.99987 2.59626 358 ft 7 kts 293°
2026-04-25 18:01 48.99986 2.59541 359 ft 9 kts 267°
2026-04-25 18:01 48.99982 2.59439 353 ft 10 kts 266°
2026-04-25 18:01 48.99977 2.59339 357 ft 9 kts 266°
2026-04-25 18:01 48.99971 2.59242 353 ft 9 kts 264°
2026-04-25 18:02 48.99965 2.59140 353 ft 10 kts 265°
2026-04-25 18:02 48.99966 2.59040 353 ft 9 kts 290°
2026-04-25 18:02 49.00018 2.59005 353 ft 8 kts
2026-04-25 18:02 49.00052 2.59067 353 ft 8 kts 82°
2026-04-25 18:03 49.00057 2.59152 353 ft 8 kts 86°
2026-04-25 18:03 49.00061 2.59234 362 ft 8 kts 85°
2026-04-25 18:03 49.00066 2.59314 358 ft 7 kts 78°
2026-04-25 18:03 49.00102 2.59361 360 ft 7 kts
2026-04-25 18:04 49.00157 2.59358 353 ft 9 kts 355°
2026-04-25 18:04 49.00216 2.59351 353 ft 8 kts 356°
2026-04-25 18:04 49.00269 2.59377 360 ft 8 kts 52°
2026-04-25 18:04 49.00283 2.59460 353 ft 9 kts 85°
2026-04-25 18:05 49.00289 2.59552 355 ft 9 kts 78°
2026-04-25 18:05 49.00335 2.59608 353 ft 10 kts
2026-04-25 18:05 49.00410 2.59599 357 ft 11 kts 355°
2026-04-25 18:05 49.00484 2.59589 353 ft 11 kts 355°
2026-04-25 18:06 49.00556 2.59580 353 ft 10 kts 356°
2026-04-25 18:06 49.00617 2.59574 356 ft 8 kts 354°
2026-04-25 18:06 49.00671 2.59567 357 ft 8 kts 356°
2026-04-25 18:06 49.00722 2.59561 353 ft 7 kts 356°
2026-04-25 18:07 49.00773 2.59556 353 ft 7 kts 356°
2026-04-25 18:07 49.00821 2.59550 355 ft 7 kts 354°
2026-04-25 18:07 49.00848 2.59545 353 ft 7 kts 354°
2026-04-25 18:07 49.00897 2.59538 353 ft 8 kts 355°
2026-04-25 18:08 49.00958 2.59533 353 ft 9 kts 353°
2026-04-25 18:08 49.01003 2.59473 358 ft 9 kts 279°
2026-04-25 18:08 49.00998 2.59358 357 ft 13 kts 265°
2026-04-25 18:08 49.00991 2.59215 353 ft 16 kts 266°
2026-04-25 18:09 49.00975 2.59043 355 ft 16 kts 253°
2026-04-25 18:09 49.00949 2.58878 359 ft 16 kts 265°
2026-04-25 18:09 49.00940 2.58714 353 ft 15 kts 265°
2026-04-25 18:09 49.00937 2.58663 360 ft 15 kts 265°
2026-04-25 18:10 49.00923 2.58392 362 ft 16 kts 264°
2026-04-25 18:10 49.00913 2.58228 353 ft 15 kts 265°
2026-04-25 18:10 49.00905 2.58070 353 ft 15 kts 266°
2026-04-25 18:10 49.00898 2.57921 353 ft 14 kts 265°
2026-04-25 18:11 49.00891 2.57774 359 ft 13 kts 266°
2026-04-25 18:11 49.00883 2.57633 353 ft 14 kts 265°
2026-04-25 18:11 49.00874 2.57458 355 ft 19 kts 266°
2026-04-25 18:11 49.00860 2.57230 353 ft 23 kts 265°
2026-04-25 18:12 49.00848 2.56984 353 ft 23 kts 265°
2026-04-25 18:12 49.00834 2.56746 353 ft 22 kts 265°
2026-04-25 18:12 49.00824 2.56523 357 ft 19 kts 266°
2026-04-25 18:12 49.00792 2.56427 353 ft 8 kts 168°
2026-04-25 18:13 49.00739 2.56456 359 ft 8 kts 176°
2026-04-25 18:13 49.00684 2.56462 356 ft 8 kts 175°
2026-04-25 18:13 49.00634 2.56443 360 ft 8 kts 229°
2026-04-25 18:14 49.00617 2.56266 353 ft 9 kts 265°
2026-04-25 18:14 49.00612 2.56169 353 ft 9 kts 266°
2026-04-25 18:14 49.00603 2.56076 359 ft 9 kts 255°
2026-04-25 18:14 49.00586 2.55996 358 ft 6 kts 249°
2026-04-25 18:15 49.00585 2.55992 357 ft 0 kts 249°
2026-04-25 18:15 49.00578 2.55986 358 ft 2 kts 204°
2026-04-25 18:15 49.00566 2.56007 358 ft 3 kts 122°
2026-04-25 18:15 49.00548 2.56021 356 ft 3 kts 167°
2026-04-25 18:16 49.00527 2.56026 353 ft 3 kts 171°
2026-04-25 18:16 49.00511 2.56030 353 ft 0 kts 170°